Weather Roundup
Issued by NWS

Home | Current Version | Previous Version | Graphics & Text | Print | Product List | Glossary Off
Versions: 1 2 3 4 5 6 7 8 9 10 11 12 13 14 15 16 17 18 19 20 21 22 23 24 25 26 27 28 29 30 31 32 33 34 35 36 37 38 39 40 41 42 43 44 45 46 47 48 49 50

000
NZUS93 KARX 242259
HRRWXR

CURRENT HOURLY OBSERVATIONS ACROSS
MUCH OF THE UPPER MISSISSIPPI VALLEY
NATIONAL WEATHER SERVICE LA CROSSE WI
500 PM CST MON NOV 24 2014


...SOUTHEAST MINNESOTA...


CITY           SKY/WX    TMP DP  RH WIND       PRES   REMARKS
ROCHESTER      LGT SNOW  17  12  80 NW22      29.62R WCI   0
ROCHESTER/MAYO CLOUDY    19  13  79 W22G36    29.62R WCI   2
WINONA         CLOUDY    25  19  80 W14G22    29.62R WCI  13
AUSTIN         LGT SNOW  16  10  79 NW24      29.66R WCI  -3
ALBERT LEA       N/A    N/A N/A N/A MISG      29.68R
DODGE CENTER   LGT SNOW  16  12  86 NW16G28   29.63R WCI   0
PRESTON        CLOUDY    17  13  84 NW25      29.62R WCI  -2
OWATONNA       FLURRIES  16  10  79 W20G25    29.68R WCI  -1
FARIBAULT      FLURRIES  18  10  73 W17G28    29.69R WCI   2
$$

...ELSEWHERE IN MINNESOTA...


CITY           SKY/WX    TMP DP  RH WIND       PRES   REMARKS
MINNEAPOLIS    FLURRIES  17  11  77 NW21G26   29.68R WCI   0
INTNL FALLS    FLURRIES  16  11  80 NW12      29.72R WCI   3
DULUTH         LGT SNOW  18  12  77 N16G25    29.56R BLWGSNOWWCI   3
RED WING       LGT SNOW  21  18  86 W14G20    29.63R WCI   8
REDWOOD FALLS  FLURRIES  16   9  74 NW20G35   29.79R WCI  -1
MANKATO        CLOUDY    12   7  79 NW24G30   29.72R VSB 1   WCI  -8
WORTHINGTON    CLOUDY    19  12  73 NW25G31   29.79R WCI   2
FAIRMONT       CLOUDY    18  10  73 W22G39    29.74R WCI   0
$$

...SOUTHWEST WISCONSIN...


CITY           SKY/WX    TMP DP  RH WIND       PRES   REMARKS
LA CROSSE      CLOUDY    25  18  74 W17G24    29.59R WCI  12
PRAIRIE DU CHI CLOUDY    23  17  76 W13G20    29.63R WCI  11
BOSCOBEL       CLOUDY    24  18  77 W9G20     29.60R WCI  14
LONE ROCK      LGT SNOW  29  20  69 W17       29.54R WCI  17
PLATTEVILLE    CLOUDY    23  20  91 W26G32    29.60R WCI   6
FORT MC COY    LGT SNOW  24  23  96 W12       29.53R WCI  13
VIROQUA        CLOUDY    23  22  97 W12G21    29.53R WCI  11
WIS DELLS      LGT SNOW  25  23  92 W13G21    29.47R VSB 3/4 WCI  14
$$

...ELSEWHERE IN WISCONSIN...


CITY           SKY/WX    TMP DP  RH WIND       PRES   REMARKS
MILWAUKEE      LGT SNOW  29  24  82 W18G28    29.46R VSB 1   WCI  16
MADISON        LGT SNOW  26  23  88 W13G21    29.50R VSB 3/4 WCI  15
GREEN BAY      LGT SNOW  33  32  96 NW10      29.33R VSB 3/4 WCI  25
EAU CLAIRE     LGT SNOW  23  19  85 W16       29.53R FOG     WCI  10
BLACK RVR FLS  LGT SNOW  26  24  92 W17G26    29.50R WCI  13
MEDFORD        LGT SNOW  27  26  94 NW16      29.39R VSB 3/4 WCI  15
WAUSAU         LGT SNOW  27  24  89 NW15G25   29.37R VSB 1   WCI  15
WIS RAPIDS     LGT SNOW  27  24  89 W16G26    29.43R WCI  15
MARSHFIELD     LGT SNOW  26  23  88 W20G28    29.41R VSB 3/4 WCI  12
RICE LAKE      CLOUDY    24  19  83 W15G22    29.54R WCI  11
$$

...NORTHEAST IOWA...


CITY           SKY/WX    TMP DP  RH WIND       PRES   REMARKS
DECORAH        FLURRIES  19  14  79 VRB7G24   29.61R WCI  10
MASON CITY     CLOUDY    17  11  77 NW30G38   29.71R WCI  -3
CHARLES CITY   FLURRIES  19  14  79 W28       29.66R WCI   1
OELWEIN        CLOUDY    21  16  79 W24G31    29.65R WCI   4
$$

...ELSEWHERE IN IOWA...


CITY           SKY/WX    TMP DP  RH WIND       PRES   REMARKS
DES MOINES     CLOUDY    28  18  66 NW21G32   29.80R WCI  15
IOWA CITY      LGT SNOW  25  22  88 W16G28    29.75R FOG     WCI  12
FORT DODGE     CLOUDY    21  12  68 NW20G26   29.79R WCI   6
$$

...NORTHERN ILLINOIS...


CITY           SKY/WX    TMP DP  RH WIND       PRES   REMARKS
CHICAGO-OHARE  FLURRIES  28  23  81 W21G40    29.58R WCI  15
CHICAGO-MIDWAY CLOUDY    31  25  78 W29G39    29.61R WCI  16
MOLINE         CLOUDY    27  21  78 W22G32    29.71R WCI  13
ROCKFORD       CLOUDY    26  22  84 W16G23    29.61R WCI  14
PEORIA         CLOUDY    31  24  75 W22G29    29.76R WCI  18
$$

NOTE: "FAIR" INDICATES FEW OR NO CLOUDS BELOW 12,000 FEET WITH NO
SIGNIFICANT WEATHER AND/OR OBSTRUCTIONS TO VISIBILITY. WIND
SPEEDS ARE IN MILES-PER-HOUR.



USA.gov is the U.S. government's official web portal to all federal, state and local government web resources and services.